Hauptseite
METAR-TAF:

METAR-TAF

Flughäfen :

Meierwik

Glücksburg, Deutschland

Breite: 54-50N, Länge: 009-30E, Höhe: 27 m

Beobachtung

Neuester Wetterbericht von vor 22 Minuten, um 21:20 UTC
Wind 10 kt aus Ost/Südost
Temperatur 5°C
Luftfeuchtigkeit 93%
Luftdruck 1011 hPa
Sichtweite 10 km oder mehr
Leicht bewölkt in der Höhe von 1800 ft
Durchbrochene Bewölkung in der Höhe von 17000 ft

METAR: ETGG 142120Z 12010KT 9999 FEW018 BKN170 05/04 Q1011 BLU

Zeit: 22:42 (21:42 UTC)


TAF: fehlend

Wetterbeobachtungen und Prognosen von mehr als 4000 Flughäfen (METAR und TAF Bericht).

Die verfügbaren Stationen werden durch gelbe und rote Markierungen auf der Karte dargestellt.

Führen Sie die Maus auf sie, um den Namen der Station zu sehen.

Darauf klicken, um die Beobachtung von Wetterbeobachtungen und Prognosen zu sehen.

Um die Karte zu ändern : klicken Sie auf den grünen Tasten mit einem schwarzen Kreuz Zum Vergrößern, auf den grünen Button mit einem Gedankenstrich zu verkleinern, oder auf die grünen Pfeile für benachbarte Karten.


METAR-TAF: